DateTimeUTC,F1_A11,F1_S11,BsB_S11,BsG_S11,BsR_S11,BbsB_S11,BbsG_S11,BbsR_S11,BaB_A11,BaG_A11,BaR_A11,Tu_S11,T_S11,Uu_S11,U_S11,P_S11,T1_A11
2021-12-03T04:00:00Z,00000200,21000000,,,,,,,0000.41,-000.12,-000.15,19.2,26.1,,00.0,0624.1,30.9
2021-12-03T04:01:00Z,00000200,21000000,,,,,,,-000.25,0000.18,0000.09,19.2,26.1,,00.0,0624.1,30.9
2021-12-03T04:02:00Z,00000200,21000000,,,,,,,0000.06,0000.18,0000.35,19.1,26.0,,00.0,0624.1,30.9
2021-12-03T04:03:00Z,00000200,61000000,,,,,,,0000.18,0000.19,-000.05,19.1,26.0,,00.0,0624.1,30.9
2021-12-03T04:04:00Z,00000200,41000000,-000.97,0000.08,0000.08,0000.42,0000.14,-000.03,0000.15,-000.16,-000.18,19.2,25.8,,00.0,0625.0,30.9
2021-12-03T04:05:00Z,00000200,01000000,0000.48,-000.13,-000.04,0000.62,0000.02,0000.17,-000.41,0000.03,-000.09,19.3,25.8,,00.0,0625.2,30.9
2021-12-03T04:06:00Z,00000200,01000000,-000.54,-000.09,-000.24,-000.12,-000.05,-000.14,0000.44,-000.04,0000.07,19.4,25.8,,00.0,0625.3,30.9
2021-12-03T04:07:00Z,00000200,01000000,0000.58,-000.09,0000.17,0000.06,0000.13,0000.02,-000.14,-000.21,-000.10,19.5,25.8,,00.0,0625.4,30.9
2021-12-03T04:08:00Z,00000200,01000000,-000.60,0000.04,-000.11,-000.79,0000.04,-000.03,0000.18,0000.20,0000.30,19.5,25.8,,00.0,0625.5,30.9
2021-12-03T04:09:00Z,00000200,01000000,-000.41,-000.22,-000.14,-000.33,0000.04,0000.27,-000.11,0000.16,-000.02,19.6,25.9,,00.0,0625.5,30.9
2021-12-03T04:10:00Z,00000200,01000000,0000.23,0000.02,-000.07,-000.25,-000.08,0000.23,0000.11,-000.08,0000.13,19.6,25.9,,00.0,0625.6,31.0
2021-12-03T04:11:00Z,00000200,01000000,0000.61,0000.37,-000.29,0000.15,0000.02,-000.27,-000.00,0000.28,-000.61,19.7,25.9,,00.0,0625.6,31.0
2021-12-03T04:12:00Z,00000200,01000000,-000.29,-000.09,0000.46,0000.28,0000.10,-000.03,-000.19,-000.35,0000.42,19.7,25.9,,00.0,0625.6,31.0
2021-12-03T04:13:00Z,00000200,01000000,0000.27,0000.27,0000.22,-000.21,0000.02,0000.18,-000.03,-000.14,0000.05,19.6,25.9,,00.0,0625.6,30.9
2021-12-03T04:14:00Z,00000200,01000000,0000.12,-000.01,0000.21,0000.62,0000.08,0000.09,0000.09,0000.15,-000.05,19.5,25.9,,00.0,0625.5,30.9
2021-12-03T04:15:00Z,00000200,01000000,-000.04,0000.27,-000.08,0000.53,0000.02,0000.07,0000.07,0000.14,-000.31,19.5,25.9,,00.0,0625.5,30.9
2021-12-03T04:16:00Z,00000200,01000000,0000.06,0000.08,0000.15,0000.25,0000.14,-000.23,-000.09,-000.03,0000.16,19.4,25.8,,00.0,0625.5,30.9
2021-12-03T04:17:00Z,00000200,01000000,0000.50,0000.14,-000.27,0000.02,-000.10,0000.05,0000.43,-000.09,0000.53,19.4,25.8,,00.0,0625.5,30.9
2021-12-03T04:18:00Z,00000200,01000000,-000.46,-000.32,-000.15,-000.81,-000.17,-000.30,-000.27,0000.13,0000.01,19.4,25.8,,00.0,0625.4,30.9
2021-12-03T04:19:00Z,00000200,01000000,0000.42,-000.18,-000.21,-000.20,-000.11,0000.02,-000.09,-000.25,-000.47,19.4,25.8,,00.0,0625.5,30.9
2021-12-03T04:20:00Z,00000200,01000000,0000.02,0000.15,-000.19,-000.19,-000.19,0000.26,0000.55,0000.16,0000.36,19.4,25.8,,00.0,0625.5,30.9
2021-12-03T04:21:00Z,00000200,01000000,0000.70,0000.14,-000.07,-000.24,-000.12,-000.01,-000.23,0000.07,0000.02,19.5,25.8,,00.0,0625.5,30.9
2021-12-03T04:22:00Z,00000200,01000000,0000.51,-000.15,0000.13,-000.01,0000.13,-000.13,-000.07,0000.23,-000.05,19.6,25.8,,00.0,0625.5,30.9
2021-12-03T04:23:00Z,00000200,01000000,-000.14,0000.32,-000.09,-000.55,0000.43,-000.24,0000.02,-000.15,-000.02,19.6,25.9,,00.0,0625.6,30.9
2021-12-03T04:24:00Z,00000200,01000000,0000.37,0000.22,0000.40,-000.08,0000.38,0000.02,0002.16,0001.96,0001.44,19.7,25.9,,00.0,0625.6,30.9
2021-12-03T04:25:00Z,00000200,01000000,0002.06,0001.88,0001.03,-000.03,0000.52,-000.04,0030.87,0028.80,0022.98,19.8,25.9,,00.0,0625.6,31.0
2021-12-03T04:26:00Z,00000200,01000000,0004.30,0003.09,0002.18,0000.52,0000.64,0000.76,0053.84,0049.24,0039.04,19.8,26.0,,00.0,0625.7,31.0
2021-12-03T04:27:00Z,00000200,01000000,0003.59,0002.33,0001.48,0001.66,0000.88,0000.61,0049.24,0046.00,0036.83,19.7,26.0,,00.0,0625.7,30.9
2021-12-03T04:28:00Z,00000200,01000000,0001.09,0000.52,0000.07,-000.02,0000.24,0000.09,0011.55,0010.68,0008.18,19.7,26.0,,00.0,0625.6,30.9
2021-12-03T04:29:00Z,00000200,01000000,-000.47,0000.01,0000.05,0000.25,0000.15,0000.09,0000.47,0000.27,0000.94,19.6,25.9,,00.0,0625.6,30.9
2021-12-03T04:30:00Z,00000200,01000000,-000.70,0000.06,-000.04,-000.58,0000.33,0000.06,0000.71,0000.56,0000.09,19.5,25.9,,00.0,0625.5,30.9
2021-12-03T04:31:00Z,00000200,01000000,0000.26,0000.42,-000.19,-000.24,0000.07,0000.25,0000.07,0000.34,0000.55,19.5,25.9,,00.0,0625.5,30.9
2021-12-03T04:32:00Z,00000200,01000000,-000.70,0000.13,-000.13,-000.64,-000.11,-000.30,0000.23,0000.40,-000.04,19.4,25.8,,00.0,0625.5,30.9
2021-12-03T04:33:00Z,00000200,01000000,-000.03,0000.12,0000.09,-000.82,0000.05,0000.03,0000.46,0000.04,0000.33,19.4,25.8,,00.0,0625.6,30.9
2021-12-03T04:34:00Z,00000200,01000000,0000.08,0000.01,0000.04,0000.44,0000.01,-000.13,0000.04,0000.25,-000.10,19.5,25.8,,00.0,0625.6,30.9
2021-12-03T04:35:00Z,00000200,01000000,-000.03,-000.13,0000.36,0000.06,0000.04,0000.16,0000.29,0000.22,0000.30,19.5,25.8,,00.0,0625.7,30.9
2021-12-03T04:36:00Z,00000200,01000000,0000.07,0000.10,-000.02,0000.30,0000.11,0000.13,0000.16,0000.20,0000.24,19.6,25.8,,00.0,0625.7,30.9
2021-12-03T04:37:00Z,00000200,01000000,-000.01,0000.30,-000.03,-000.43,-000.04,0000.15,-000.27,-000.12,-000.11,19.6,25.9,,00.0,0625.7,30.9
2021-12-03T04:38:00Z,00000200,01000000,0000.25,0000.14,0000.28,-000.12,-000.07,-000.18,0000.41,0000.19,0000.11,19.7,25.9,,00.0,0625.7,31.0
2021-12-03T04:39:00Z,00000200,01000000,-000.21,-000.08,0000.18,0000.27,-000.23,0000.30,0000.17,0000.20,-000.02,19.8,25.9,,00.0,0625.7,30.9
2021-12-03T04:40:00Z,00000200,01000000,0000.25,0000.07,-000.25,0000.36,-000.18,0000.07,-000.04,-000.08,0000.10,19.8,26.0,,00.0,0625.8,31.0
2021-12-03T04:41:00Z,00000200,01000000,0000.05,-000.39,-000.14,-000.41,-000.05,-000.20,0000.02,0000.17,0000.60,19.8,26.0,,00.0,0625.7,31.0
2021-12-03T04:42:00Z,00000200,01000000,-000.42,0000.17,0000.06,0000.11,-000.32,0000.48,-000.03,-000.21,-000.27,19.8,26.0,,00.0,0625.7,31.0
2021-12-03T04:43:00Z,00000200,01000000,0000.22,0000.29,0000.67,0000.44,0000.15,0000.40,0000.20,0000.32,-000.17,19.8,26.0,,00.0,0625.7,30.9
2021-12-03T04:44:00Z,00000200,01000000,0000.04,0000.34,0000.01,0000.28,0000.35,-000.04,-000.03,-000.09,0000.17,19.7,26.0,,00.0,0625.7,30.9
2021-12-03T04:45:00Z,00000200,01000000,0000.09,0000.16,0000.23,-000.19,0000.28,0000.15,0000.15,-000.00,0000.19,19.6,26.0,,00.0,0625.7,30.9
2021-12-03T04:46:00Z,00000200,01000000,0000.38,-000.30,-000.11,0000.18,-000.08,0000.12,0000.15,0000.12,0000.01,19.6,25.9,,00.0,0625.7,30.9
2021-12-03T04:47:00Z,00000200,01000000,0000.34,0000.41,0000.33,0000.40,0000.27,0000.00,0000.22,0000.28,0000.32,19.5,25.9,,00.0,0625.7,30.9
2021-12-03T04:48:00Z,00000200,01000000,0000.37,-000.12,-000.01,-000.24,0000.36,-000.18,-000.06,0000.06,-000.18,19.5,25.9,,00.0,0625.8,30.9
2021-12-03T04:49:00Z,00000200,01000000,-000.36,0000.11,-000.02,0000.26,-000.10,-000.27,0000.40,0000.03,0000.07,19.6,25.9,,00.0,0625.8,30.9
2021-12-03T04:50:00Z,00000200,01000000,0000.39,0000.03,-000.40,-000.35,-000.03,-000.24,-000.36,0000.12,0000.04,19.6,25.9,,00.0,0625.8,30.9
2021-12-03T04:51:00Z,00000200,01000000,-000.32,-000.11,0000.26,-000.03,-000.20,0000.36,0000.18,-000.12,0000.07,19.7,25.9,,00.0,0625.8,31.0
2021-12-03T04:52:00Z,00000200,01000000,0000.21,-000.25,-000.18,-000.00,0000.26,-000.23,0000.31,0000.45,0000.13,19.8,25.9,,00.0,0625.8,31.0
2021-12-03T04:53:00Z,00000200,01000000,0001.25,-000.12,-000.29,0000.02,-000.19,0000.15,0000.14,-000.07,-000.00,19.8,26.0,,00.0,0625.9,31.0
2021-12-03T04:54:00Z,00000200,01000000,0000.01,-000.05,0000.08,0000.18,-000.01,0000.12,-000.18,0000.03,-000.00,19.9,26.0,,00.0,0625.9,31.0
2021-12-03T04:55:00Z,00000200,01000000,0000.05,0000.05,0000.15,0000.25,-000.01,0000.40,0000.22,-000.15,0000.24,19.9,26.0,,00.0,0625.9,31.0
2021-12-03T04:56:00Z,00000200,01000000,-000.24,0000.29,0000.03,0000.32,0000.34,0000.07,-000.16,-000.03,-000.42,19.9,26.1,,00.0,0625.9,31.0
2021-12-03T04:57:00Z,00000200,41000000,,,,,,,-000.03,0000.23,0000.62,19.9,26.1,,00.0,0626.0,31.0
2021-12-03T04:58:00Z,00000200,61000000,,,,,,,-000.02,-000.01,-000.35,19.5,26.1,,00.0,0625.0,30.9
2021-12-03T04:59:00Z,00000200,21000000,,,,,,,-000.11,-000.15,-000.29,19.5,26.2,,00.0,0625.0,30.9
